Temp
-12 -12 -12 -12 -11 -11 -11 -10 -10 -10 -10 -10 -10 -10 -10 -10 -10 -10 -9 -10 -9 -10 -9 -9 -9 -8 -8 -8 -7 -7 -7 -7 -6 -7 -8 -9 -9 -9 -9 -9 -9 -9 -9 -8 -8
-13 -12 -12 -12 -12 -11 -11 -10 -10 -10 -10 -10 -10 -10 -10 -9 -9 -9 -10 -9 -9 -9 -9 -9 -9 -9 -9 -9 -8 -7 -7 -7 -7 -7 -7 -8 -9 -8 -8 -9 -9 -9 -8 -7 -8
-13 -13 -12 -12 -11 -11 -11 -11 -11 -10 -10 -10 -10 -10 -9 -9 -9 -9 -9 -10 -10 -9 -9 -9 -9 -9 -9 -9 -9 -8 -7 -8 -7 -7 -8 -7 -8 -9 -8 -8 -9 -9 -8 -8 -7
-13 -13 -13 -12 -12 -12 -12 -11 -11 -11 -11 -11 -10 -10 -10 -9 -9 -10 -9 -9 -9 -9 -9 -9 -9 -9 -9 -9 -9 -8 -8 -8 -8 -7 -7 -7 -8 -8 -8 -8 -7 -9 -8 -8 -7
-14 -14 -14 -13 -13 -12 -12 -12 -12 -11 -11 -11 -10 -10 -10 -10 -9 -9 -9 -9 -9 -9 -9 -9 -9 -9 -9 -9 -8 -9 -9 -8 -8 -8 -7 -7 -7 -8 -8 -8 -8 -7 -7 -6 -6
-14 -14 -14 -14 -13 -13 -13 -13 -12 -12 -12 -12 -11 -11 -11 -10 -11 -10 -10 -10 -9 -9 -9 -9 -9 -9 -9 -9 -9 -8 -8 -9 -8 -8 -8 -8 -7 -8 -9 -8 -8 -8 -8 -7 -7
-14 -14 -14 -14 -13 -13 -13 -13 -13 -13 -13 -12 -12 -12 -11 -11 -11 -11 -11 -10 -10 -10 -10 -9 -9 -9 -9 -9 -9 -8 -8 -8 -8 -9 -8 -8 -7 -7 -8 -9 -8 -8 -8 -7 -7
-14 -14 -14 -14 -14 -13 -13 -13 -13 -13 -13 -13 -12 -12 -12 -11 -12 -12 -11 -11 -11 -11 -11 -11 -10 -9 -9 -10 -9 -9 -8 -8 -8 -9 -9 -9 -7 -8 -9 -9 -9 -8 -8 -8 -7
-14 -14 -14 -14 -14 -13 -13 -13 -13 -13 -13 -13 -13 -13 -12 -12 -12 -12 -12 -12 -12 -12 -11 -11 -11 -11 -10 -9 -9 -10 -9 -9 -8 -9 -9 -9 -8 -8 -9 -9 -10 -9 -8 -9 -8
-14 -14 -14 -14 -14 -14 -13 -13 -13 -13 -13 -13 -13 -13 -13 -13 -12 -12 -12 -12 -12 -12 -12 -11 -11 -11 -11 -11 -10 -9 -9 -9 -9 -9 -9 -9 -9 -8 -9 -9 -9 -10 -10 -9 -9
-15 -15 -14 -14 -14 -14 -14 -14 -14 -14 -13 -13 -13 -13 -13 -13 -12 -12 -12 -12 -12 -12 -12 -12 -12 -12 -11 -11 -11 -10 -9 -8 -8 -9 -9 -9 -9 -9 -9 -9 -9 -9 -10 -9 -8
-15 -15 -14 -14 -14 -14 -14 -14 -14 -14 -14 -14 -13 -13 -13 -13 -13 -13 -13 -13 -13 -13 -12 -13 -12 -12 -11 -11 -11 -10 -10 -9 -9 -10 -10 -10 -9 -9 -9 -8 -9 -9 -9 -10 -9
-15 -15 -15 -14 -14 -14 -14 -14 -14 -14 -14 -14 -14 -14 -13 -13 -13 -13 -13 -13 -13 -13 -13 -13 -13 -12 -12 -12 -11 -11 -11 -10 -10 -10 -10 -10 -9 -9 -9 -9 -9 -9 -9 -9 -10
-15 -15 -15 -15 -14 -14 -14 -14 -14 -14 -14 -14 -14 -14 -14 -13 -13 -13 -13 -13 -13 -13 -13 -13 -14 -13 -13 -13 -13 -11 -13 -12 -12 -13 -9 -13 -9 -10 -9 -9 -9 -9 -9 -9 -10
-16 -15 -15 -15 -15 -15 -15 -15 -15 -14 -14 -14 -14 -14 -14 -14 -14 -14 -13 -13 -13 -14 -14 -15 -14 -14 -14 -15 -17 -15 -16 -16 -16 -15 -13 -14 -12 -8 -11 -10 -9 -9 -10 -10 -10
-16 -16 -16 -15 -15 -15 -15 -15 -15 -15 -14 -14 -14 -14 -14 -14 -14 -14 -14 -14 -14 -14 -15 -16 -15 -15 -15 -18 -19 -19 -18 -19 -20 -19 -18 -14 -15 -10 -11 -11 -11 -11 -12 -12 -11
-16 -16 -16 -16 -16 -16 -15 -15 -16 -15 -15 -15 -15 -15 -15 -15 -14 -14 -14 -14 -14 -14 -15 -16 -16 -16 -18 -19 -21 -22 -21 -22 -22 -21 -19 -18 -19 -12 -13 -13 -12 -13 -13 -13 -12
-16 -16 -16 -16 -16 -16 -16 -16 -15 -15 -15 -15 -15 -15 -15 -15 -15 -14 -15 -15 -15 -15 -15 -16 -17 -17 -19 -21 -22 -23 -23 -21 -21 -20 -19 -20 -20 -16 -16 -15 -15 -14 -15 -14 -14
-16 -16 -16 -16 -16 -16 -16 -16 -16 -16 -16 -16 -16 -16 -15 -15 -15 -15 -15 -15 -15 -15 -16 -16 -18 -18 -20 -21 -22 -22 -22 -22 -22 -20 -20 -20 -20 -18 -18 -17 -16 -15 -15 -15 -14
-17 -17 -17 -17 -17 -16 -16 -16 -16 -16 -16 -16 -16 -16 -16 -16 -16 -16 -15 -15 -16 -16 -16 -17 -17 -18 -21 -21 -22 -21 -22 -22 -21 -21 -20 -20 -20 -20 -19 -18 -17 -15 -16 -15 -15
-17 -17 -17 -16 -16 -16 -16 -16 -16 -16 -16 -16 -16 -16 -16 -16 -16 -16 -16 -16 -16 -16 -16 -17 -17 -19 -20 -19 -22 -22 -21 -22 -22 -21 -20 -20 -19 -19 -18 -18 -18 -17 -16 -16 -15
-17 -17 -17 -17 -16 -17 -16 -16 -16 -16 -16 -16 -16 -16 -17 -17 -17 -17 -16 -16 -16 -16 -17 -17 -17 -19 -20 -20 -21 -21 -22 -22 -22 -22 -22 -21 -20 -20 -19 -18 -18 -17 -17 -16 -16
-17 -17 -17 -17 -16 -16 -16 -16 -17 -17 -17 -16 -16 -16 -17 -17 -17 -17 -17 -17 -17 -16 -17 -18 -18 -18 -20 -20 -21 -21 -22 -22 -22 -22 -22 -22 -20 -20 -20 -19 -18 -17 -17 -17 -17
-17 -17 -17 -17 -17 -17 -16 -16 -17 -17 -17 -17 -17 -17 -17 -17 -18 -18 -17 -18 -18 -17 -17 -18 -18 -18 -19 -20 -21 -22 -22 -22 -22 -22 -22 -22 -20 -21 -21 -21 -20 -19 -18 -17 -17
-18 -17 -17 -17 -17 -17 -17 -17 -17 -17 -17 -17 -17 -17 -17 -17 -18 -18 -18 -18 -18 -18 -17 -18 -18 -18 -19 -19 -20 -21 -21 -22 -22 -22 -22 -22 -21 -21 -21 -21 -20 -20 -19 -18 -18
-18 -18 -18 -17 -17 -17 -17 -17 -17 -17 -17 -17 -17 -17 -17 -18 -18 -18 -18 -18 -19 -18 -18 -18 -18 -18 -20 -19 -19 -20 -21 -22 -22 -22 -22 -22 -22 -21 -21 -22 -21 -19 -20 -20 -18
-18 -18 -18 -18 -18 -17 -17 -17 -17 -17 -17 -17 -17 -17 -17 -18 -18 -18 -18 -18 -18 -19 -18 -18 -18 -18 -19 -20 -20 -20 -20 -20 -21 -21 -21 -21 -21 -21 -21 -22 -22 -21 -20 -20 -20
Height
5792 5796 5800 5803 5807 5810 5813 5815 5819 5823 5823 5825 5830 5832 5833 5835 5837 5841 5843 5844 5848 5851 5855 5856 5859 5862 5865 5867 5870 5873 5878 5884 5888 5893 5895 5892 5895 5894 5889 5891 5896 5898 5899 5900 5904
5787 5791 5795 5797 5801 5805 5808 5811 5814 5816 5818 5821 5824 5826 5827 5831 5832 5836 5837 5838 5841 5845 5849 5851 5853 5857 5859 5860 5862 5864 5872 5879 5882 5885 5889 5887 5889 5891 5890 5885 5889 5894 5895 5898 5902
5782 5786 5789 5792 5795 5799 5802 5805 5808 5810 5813 5816 5818 5819 5821 5824 5828 5830 5830 5831 5834 5839 5841 5843 5846 5850 5853 5854 5856 5857 5865 5868 5875 5876 5881 5883 5884 5884 5886 5883 5883 5888 5890 5894 5897
5778 5781 5784 5786 5789 5793 5795 5799 5802 5804 5805 5808 5811 5813 5816 5819 5822 5822 5822 5823 5826 5830 5833 5835 5838 5842 5845 5848 5849 5848 5854 5859 5868 5868 5872 5875 5879 5879 5880 5882 5880 5881 5885 5888 5892
5774 5776 5779 5782 5785 5788 5790 5793 5795 5797 5799 5802 5805 5806 5809 5810 5812 5814 5815 5817 5818 5820 5823 5826 5828 5831 5835 5838 5841 5839 5846 5850 5858 5862 5866 5866 5870 5874 5872 5873 5874 5875 5880 5886 5889
5770 5774 5776 5779 5782 5785 5787 5789 5791 5793 5795 5796 5797 5799 5801 5803 5804 5804 5806 5808 5811 5813 5814 5816 5818 5822 5824 5828 5830 5831 5835 5843 5849 5855 5857 5859 5863 5864 5871 5867 5867 5868 5872 5880 5885
5767 5770 5773 5775 5778 5780 5783 5786 5787 5789 5790 5790 5791 5792 5794 5796 5796 5798 5799 5799 5801 5803 5804 5806 5807 5810 5815 5818 5818 5823 5824 5829 5839 5845 5847 5846 5849 5853 5868 5861 5862 5864 5864 5870 5876
5766 5768 5770 5773 5775 5778 5780 5781 5782 5784 5784 5785 5786 5787 5787 5789 5790 5791 5791 5792 5794 5795 5796 5796 5798 5799 5800 5802 5806 5809 5813 5818 5826 5829 5835 5832 5836 5850 5854 5858 5856 5856 5857 5858 5865
5765 5767 5769 5770 5772 5774 5776 5777 5778 5778 5779 5780 5780 5781 5782 5783 5784 5785 5785 5786 5786 5787 5787 5788 5789 5788 5787 5787 5790 5795 5799 5803 5812 5815 5815 5815 5825 5835 5839 5845 5848 5850 5850 5849 5855
5762 5763 5765 5766 5768 5769 5770 5771 5772 5774 5775 5775 5776 5779 5778 5779 5779 5778 5779 5780 5780 5780 5779 5778 5777 5776 5776 5774 5776 5777 5778 5783 5790 5797 5795 5799 5808 5815 5825 5828 5835 5840 5842 5842 5841
5758 5760 5761 5763 5764 5765 5767 5768 5769 5770 5770 5771 5772 5773 5773 5774 5774 5774 5772 5773 5773 5772 5771 5768 5765 5763 5763 5761 5761 5761 5760 5766 5774 5777 5776 5782 5787 5800 5806 5814 5817 5825 5831 5835 5836
5756 5757 5758 5759 5760 5761 5762 5763 5763 5764 5763 5763 5764 5765 5765 5765 5766 5765 5765 5766 5764 5763 5761 5757 5753 5750 5748 5746 5745 5745 5739 5749 5751 5752 5756 5765 5768 5779 5787 5798 5804 5810 5814 5821 5829
5753 5754 5755 5755 5756 5756 5756 5756 5756 5756 5757 5757 5757 5757 5758 5759 5757 5757 5758 5756 5754 5751 5747 5743 5739 5736 5732 5728 5725 5726 5722 5723 5727 5728 5737 5740 5745 5756 5774 5781 5787 5797 5805 5812 5817
5750 5751 5751 5752 5754 5753 5753 5753 5752 5752 5752 5753 5751 5750 5751 5750 5750 5749 5747 5747 5744 5738 5735 5729 5724 5719 5714 5708 5698 5700 5700 5697 5699 5702 5721 5719 5721 5735 5757 5765 5771 5782 5791 5799 5804
5747 5747 5748 5749 5749 5749 5750 5749 5749 5748 5748 5748 5746 5743 5743 5743 5741 5740 5738 5736 5733 5729 5724 5715 5710 5705 5695 5687 5681 5678 5677 5677 5679 5682 5694 5695 5704 5722 5733 5746 5760 5768 5774 5783 5789
5744 5744 5745 5746 5746 5746 5746 5745 5745 5746 5743 5742 5739 5737 5736 5735 5733 5732 5729 5729 5726 5724 5717 5707 5700 5692 5684 5677 5669 5663 5661 5660 5665 5671 5672 5687 5691 5704 5712 5731 5744 5753 5758 5763 5765
5740 5741 5742 5742 5743 5742 5742 5742 5742 5739 5739 5737 5734 5732 5731 5729 5727 5725 5724 5722 5720 5717 5713 5707 5695 5686 5675 5670 5665 5655 5654 5655 5660 5664 5663 5677 5679 5695 5701 5714 5731 5738 5744 5750 5752
5735 5737 5737 5738 5738 5738 5738 5739 5738 5735 5733 5732 5729 5728 5727 5725 5722 5719 5719 5716 5713 5710 5705 5701 5692 5682 5674 5664 5659 5656 5653 5657 5655 5657 5662 5667 5670 5679 5689 5699 5717 5727 5730 5729 5731
5730 5731 5733 5733 5733 5733 5734 5733 5732 5731 5729 5727 5725 5723 5721 5719 5717 5713 5713 5710 5707 5704 5699 5693 5686 5676 5666 5660 5658 5656 5654 5655 5652 5655 5655 5663 5668 5678 5676 5687 5698 5705 5708 5712 5718
5724 5726 5727 5728 5728 5728 5728 5728 5727 5726 5725 5724 5722 5720 5718 5716 5713 5708 5706 5705 5701 5698 5693 5688 5683 5672 5665 5659 5654 5653 5653 5654 5651 5651 5653 5657 5662 5670 5672 5675 5686 5694 5697 5701 5704
5717 5719 5721 5722 5723 5723 5723 5722 5721 5720 5720 5719 5717 5716 5713 5711 5707 5704 5701 5699 5696 5692 5688 5682 5678 5670 5662 5655 5655 5651 5650 5650 5649 5651 5650 5654 5661 5657 5658 5662 5667 5674 5678 5684 5691
5710 5712 5714 5715 5718 5717 5717 5717 5717 5716 5715 5714 5712 5711 5709 5707 5703 5699 5695 5692 5689 5686 5684 5679 5674 5666 5659 5652 5650 5648 5646 5646 5647 5648 5648 5649 5658 5658 5651 5649 5654 5655 5660 5670 5673
5702 5705 5706 5708 5710 5711 5712 5711 5711 5710 5709 5708 5707 5705 5704 5702 5700 5695 5690 5686 5683 5680 5677 5674 5669 5665 5656 5651 5647 5645 5644 5643 5642 5643 5644 5646 5652 5648 5642 5634 5638 5649 5658 5657 5660
5694 5696 5699 5700 5702 5704 5705 5705 5705 5705 5704 5703 5701 5700 5698 5696 5694 5691 5687 5683 5678 5675 5671 5668 5665 5660 5655 5649 5644 5642 5641 5638 5637 5639 5636 5639 5641 5639 5632 5626 5628 5636 5644 5651 5657
5684 5687 5689 5692 5694 5696 5697 5699 5699 5698 5697 5697 5696 5694 5692 5691 5689 5685 5682 5677 5673 5669 5666 5664 5661 5657 5649 5646 5642 5639 5637 5635 5631 5629 5625 5631 5633 5626 5627 5622 5623 5627 5633 5637 5641
5674 5678 5680 5683 5685 5688 5689 5690 5691 5691 5691 5690 5690 5688 5685 5685 5683 5680 5677 5673 5669 5666 5661 5657 5655 5652 5647 5642 5639 5634 5628 5627 5624 5622 5620 5622 5622 5622 5618 5616 5617 5619 5622 5624 5625
5663 5667 5670 5673 5675 5679 5681 5682 5683 5683 5683 5683 5683 5682 5679 5678 5676 5673 5670 5667 5664 5660 5656 5653 5649 5646 5642 5638 5634 5629 5625 5622 5620 5616 5617 5616 5615 5616 5614 5605 5610 5611 5611 5614 5616
Wind_Speed
31 30 28 27 27 26 26 25 25 25 25 25 27 29 29 28 28 31 29 29 34 34 33 31 34 36 34 36 38 40 38 32 28 24 24 26 27 23 20 16 15 23 26 23 10
29 30 29 28 27 27 27 26 26 26 26 27 28 28 29 28 28 32 32 30 31 34 42 36 33 36 36 37 40 43 42 36 34 31 30 32 31 31 29 25 17 24 29 25 11
28 28 28 27 27 27 27 27 27 28 28 29 29 28 28 27 28 30 32 34 34 36 36 36 36 44 39 35 38 45 42 39 39 38 34 38 36 35 34 33 23 21 28 26 18
27 27 27 28 28 29 30 30 31 31 31 31 31 32 31 31 31 33 35 35 36 37 37 40 42 40 41 47 44 47 45 43 39 43 41 41 42 44 41 39 38 27 28 30 24
21 21 21 24 25 26 27 27 26 28 30 32 34 34 34 36 36 38 38 39 39 40 40 41 43 43 43 43 50 52 44 45 44 43 45 47 46 44 48 46 45 43 36 28 27
12 12 13 14 15 16 16 17 18 18 20 22 24 25 28 31 29 33 35 38 41 44 48 47 46 45 46 45 45 47 57 54 48 45 47 49 50 50 46 51 52 51 46 42 34
10 10 10 11 11 12 12 12 13 15 16 18 21 23 25 26 28 29 30 34 37 39 42 46 49 51 51 49 51 48 51 51 51 52 52 51 56 56 45 51 54 54 54 49 43
10 8 8 9 9 10 11 12 11 11 12 14 16 18 21 24 24 24 27 27 29 32 34 38 44 48 51 53 55 57 56 54 51 52 56 55 62 53 48 51 54 57 57 56 52
9 9 8 7 7 8 9 10 11 11 11 12 12 13 14 16 17 18 20 23 24 26 28 32 36 42 48 54 57 57 61 62 56 56 60 62 61 58 52 52 57 58 60 61 57
6 6 5 6 6 7 9 10 12 13 13 12 12 11 11 12 14 17 20 23 27 30 33 35 36 39 43 47 54 59 63 66 65 63 65 67 62 64 60 56 57 59 60 62 62
5 5 5 5 6 6 7 8 11 13 14 16 16 17 18 21 24 25 27 28 29 33 35 39 40 42 45 50 54 58 63 69 69 68 73 71 72 66 64 66 61 60 60 61 63
5 5 5 6 7 8 9 9 10 10 11 13 15 17 18 19 21 22 24 26 29 31 34 36 42 46 50 54 56 60 66 67 71 73 74 76 76 73 71 65 69 65 63 59 57
6 6 6 6 6 6 8 9 10 12 13 15 16 16 16 18 20 22 24 26 28 31 33 37 41 46 51 55 58 59 67 70 73 77 78 78 82 80 73 71 69 70 65 62 58
7 6 5 5 3 4 6 8 9 11 12 13 16 20 21 22 22 22 24 24 25 30 32 36 41 46 50 51 55 57 61 72 77 78 79 75 86 82 77 75 74 69 70 66 63
7 6 5 4 3 4 6 6 7 8 9 12 15 18 17 18 19 19 22 22 26 29 33 38 43 47 52 52 44 50 52 61 69 75 80 79 83 86 79 78 73 73 71 69 65
9 8 7 6 5 5 6 7 7 8 9 10 12 14 15 16 17 19 21 22 25 27 31 37 44 50 50 41 38 36 45 53 53 57 67 76 75 86 81 75 73 65 64 58 67
10 9 8 8 7 7 7 8 9 9 10 11 13 13 13 15 17 19 19 21 25 28 28 31 38 44 44 37 31 27 34 37 36 42 56 56 51 81 74 70 67 56 59 55 60
15 13 12 11 10 10 9 9 10 10 12 12 13 14 14 15 19 20 17 20 24 27 31 32 31 38 31 32 21 12 19 21 24 25 35 38 41 66 63 64 56 53 54 57 54
17 17 16 14 12 11 10 10 10 10 12 14 15 16 18 20 19 20 19 20 23 26 31 34 30 29 31 26 20 14 19 26 35 21 33 26 38 42 47 57 52 61 50 60 63
18 18 16 15 13 11 11 11 12 12 13 14 15 16 17 18 20 21 20 20 23 25 29 31 28 27 24 24 23 17 19 15 24 33 21 27 22 28 27 37 51 58 57 55 59
20 18 16 16 14 12 11 11 12 14 15 15 16 17 18 20 21 22 23 21 21 24 26 29 29 22 23 27 18 20 25 26 15 10 20 29 25 33 37 36 39 49 61 59 59
25 21 18 18 17 16 14 13 13 14 16 16 18 19 19 19 20 22 25 24 23 23 23 24 27 24 21 26 19 19 21 23 26 30 29 21 23 31 36 35 43 48 54 58 65
29 26 24 23 21 19 17 15 13 12 14 17 18 21 20 21 21 21 23 26 25 25 25 24 25 22 17 24 21 19 19 23 22 25 20 23 14 24 39 46 45 48 52 49 53
31 31 29 26 23 21 19 18 16 16 16 17 20 22 21 22 22 22 22 22 24 25 26 25 24 24 21 16 19 20 22 25 31 31 37 32 28 26 32 37 45 47 46 45 46
35 33 32 31 27 24 21 19 20 18 18 19 21 23 23 20 21 24 24 24 25 26 26 24 23 22 24 23 19 17 17 28 32 31 36 31 31 40 37 39 44 44 38 42 45
39 36 35 34 31 28 25 23 21 21 21 20 22 25 25 22 21 23 24 25 24 23 24 26 25 23 22 24 21 13 19 20 24 30 38 34 34 37 40 41 45 51 45 45 45
42 41 40 37 35 32 29 26 25 23 24 24 23 25 28 26 24 26 26 27 26 25 25 25 26 25 24 22 22 23 21 23 25 29 29 31 35 37 38 46 46 48 50 48 50
Wind_Direction
221 224 227 227 228 228 230 232 234 236 240 240 244 249 249 251 252 254 248 245 240 238 233 235 236 233 233 236 237 236 238 234 233 221 194 229 217 198 219 235 257 280 288 282 258
224 224 226 229 231 231 231 233 234 236 235 240 241 242 246 245 250 253 254 254 256 243 237 244 242 243 237 236 236 239 234 234 236 233 213 224 228 234 210 233 221 252 260 273 248
227 230 230 229 234 237 237 236 238 240 238 236 237 239 244 249 247 249 251 249 250 251 245 244 247 244 242 242 242 238 237 235 230 234 229 222 230 230 238 239 239 233 259 261 251
229 232 235 238 239 240 242 243 243 243 246 246 244 242 242 243 243 246 247 252 252 249 248 251 253 252 248 245 246 244 239 236 229 232 232 230 230 238 239 245 251 233 238 251 254
232 237 240 242 245 247 249 250 248 248 247 246 247 247 246 246 245 245 245 246 250 254 252 249 250 253 252 248 246 246 243 243 235 233 233 234 232 232 239 243 252 255 250 247 260
198 205 215 223 227 231 235 239 244 244 245 247 249 251 248 248 252 253 251 250 249 249 252 253 251 249 253 254 252 246 250 248 246 238 235 235 237 234 236 243 248 254 254 255 256
197 206 213 219 226 231 231 231 237 246 254 255 254 256 256 256 253 255 256 257 257 256 254 254 257 257 253 250 252 251 250 248 247 247 242 236 230 237 230 238 246 252 256 258 258
170 180 192 201 208 214 224 230 242 247 255 259 258 257 256 256 257 258 259 259 259 261 263 265 262 260 259 258 250 249 249 249 246 246 241 242 237 228 237 231 240 251 255 255 257
174 183 192 203 214 232 242 247 251 258 264 261 254 256 255 258 258 261 264 267 268 267 268 267 267 266 263 259 256 254 249 248 243 241 240 239 241 234 234 231 234 238 250 254 254
185 199 211 222 235 249 258 258 256 254 259 261 260 264 259 262 267 272 274 273 274 275 274 274 274 271 270 268 263 257 253 248 244 239 238 237 239 240 235 233 229 235 239 247 255
207 226 237 243 249 261 265 267 267 263 256 256 259 260 264 272 275 277 276 273 272 272 273 278 279 278 273 270 266 263 258 249 247 244 239 238 239 236 236 234 231 230 234 238 249
221 236 252 257 263 268 273 272 273 274 281 282 279 277 276 278 276 276 278 281 280 282 283 280 279 279 277 274 269 263 261 256 248 245 243 238 238 234 235 231 233 233 226 229 234
226 236 247 255 268 280 292 297 296 292 286 282 282 280 279 280 281 281 278 282 288 294 292 291 288 285 283 278 272 265 259 253 251 245 241 243 237 236 232 233 234 233 233 229 228
214 214 220 235 249 288 306 304 300 291 284 274 269 270 271 272 276 285 290 293 300 303 301 300 301 301 298 289 276 264 256 250 246 244 241 238 240 235 233 231 233 234 233 233 239
217 224 228 235 262 304 308 314 319 310 302 287 280 280 278 280 286 291 297 299 308 317 319 322 317 316 312 304 290 273 258 249 248 248 240 233 235 233 233 230 230 235 236 239 243
228 233 237 251 263 286 296 314 314 311 322 315 301 291 286 286 293 306 305 309 313 322 334 335 326 320 321 318 309 288 261 251 247 249 250 242 233 231 233 230 228 231 238 236 238
238 242 246 248 259 276 296 305 315 320 326 326 325 317 310 307 307 305 303 307 314 318 325 344 329 326 322 319 323 298 266 262 258 253 254 251 244 235 234 232 228 225 230 226 236
244 248 251 256 265 275 282 289 296 322 327 326 326 328 323 316 312 308 311 311 318 327 329 343 333 330 321 326 329 303 248 280 257 263 259 250 244 239 240 234 224 221 221 219 219
245 247 252 253 256 263 272 282 292 312 322 330 330 335 334 326 320 312 318 315 320 329 335 341 343 329 322 328 328 275 276 252 254 270 251 263 250 245 245 240 224 214 222 223 218
247 247 250 253 255 264 276 284 290 300 310 322 327 330 337 331 328 318 319 320 324 331 337 345 354 334 317 311 314 269 253 263 288 275 263 244 245 229 230 242 237 223 219 221 224
244 242 242 244 245 257 273 285 294 297 301 310 318 327 332 337 332 327 322 322 325 328 338 344 349 336 326 322 306 292 268 274 294 321 274 257 253 218 215 223 213 216 222 220 224
241 241 243 247 253 259 268 283 292 300 303 305 311 321 327 331 334 333 327 326 329 329 335 343 347 345 320 320 310 308 265 269 271 275 281 282 214 226 242 221 215 208 214 219 224
240 241 242 245 247 253 265 273 289 301 309 309 310 312 319 325 331 333 330 327 330 333 336 341 341 353 312 322 302 302 289 266 268 265 266 271 245 236 244 253 231 211 209 212 215
242 241 245 245 245 248 253 267 281 291 301 314 323 315 314 318 324 326 326 327 326 331 333 337 337 345 339 312 290 280 275 275 274 269 273 281 250 241 243 264 254 240 223 219 209
243 243 242 244 246 248 253 258 268 281 295 305 313 317 317 312 317 320 322 325 324 326 328 334 335 341 327 336 327 294 276 259 262 270 277 275 259 258 252 265 257 254 244 242 240
244 244 244 244 245 249 253 257 265 275 284 296 308 310 315 310 306 311 315 317 320 323 324 329 335 338 325 333 332 306 276 269 269 262 263 268 272 272 277 278 267 248 257 250 236
242 244 244 244 245 247 252 257 265 273 282 290 300 306 307 311 306 305 311 312 315 321 320 324 330 332 327 324 324 311 307 285 269 270 270 268 270 270 272 276 274 274 270 265 256